This demonstration page uses our WeatherBlox Daily Observations layout. Learn more.

Left ArrowRight Arrow

39.12711, -84.51439

Hourly Observations for September 4, 2018

Temp ( °F °C ) Dew Point ( °F °C ) Humidity (%) Winds ( mph kmh ) Pressure ( in mb ) Visibility ( mi km ) Precip ( " mm )
12:53 am 00:53 Clear 74 23.3 74 23.3 100 100 Calm 30.24 1024 9 14 0.00 0.00
1:53 am 01:53 Clear 74 23.3 74 23.3 100 100 Calm 30.23 1024 9 14 0.00 0.00
2:53 am 02:53 Clear with Mist and Fog 73 22.8 73 22.8 100 100 Calm 30.22 1023 6 10 0.00 0.00
3:51 am 03:51 Clear with Mist and Fog 72 22 72 22 100 100 Calm 30.21 1023 2 3 0.00 0.00
3:53 am 03:53 Clear with Mist and Fog 71 21.7 71 21.7 100 100 Calm 30.22 1023 2 3 0.00 0.00
3:59 am 03:59 Clear with Mist and Fog 72 22.2 72 22.2 100 100 Calm 30.21 1023 3 5 0.00 0.00
4:08 am 04:08 Clear with Mist and Fog 72 22.2 72 22.2 100 100 Calm 30.21 1023 2 3 0.00 0.00
4:23 am 04:23 Clear with Fog 72 22.2 72 22.2 100 100 Calm 30.21 1023 1 1 0.00 0.00
4:39 am 04:39 Clear with Mist and Fog 72 22.2 72 22.2 100 100 Calm 30.21 1023 2 3 0.00 0.00
4:53 am 04:53 Clear with Mist and Fog 72 22.2 72 22.2 100 100 Calm 30.21 1023 3 5 0.00 0.00
4:56 am 04:56 Clear with Mist and Fog 71 21.7 71 21.7 100 100 Calm 30.21 1023 2 3 0.00 0.00
5:05 am 05:05 Clear with Fog 71 21.7 71 21.7 100 100 Calm 30.21 1023 1 1 0.00 0.00
5:16 am 05:16 Clear with Mist and Fog 72 22.2 72 22.2 100 100 Calm 30.21 1023 1 2 0.00 0.00
5:28 am 05:28 Clear with Mist and Fog 71 21.7 71 21.7 100 100 Calm 30.21 1023 1 1 0.00 0.00
5:43 am 05:43 Clear with Mist and Fog 71 21.7 71 21.7 100 100 Calm 30.21 1023 3 4 0.00 0.00
5:50 am 05:50 Clear with Mist and Fog 72 22 72 22 100 100 Calm 30.21 1023 4 6 0.00 0.00
5:53 am 05:53 Clear with Mist and Fog 71 21.7 71 21.7 100 100 Calm 30.22 1023 4 6 0.00 0.00
6:15 am 06:15 Clear with Mist and Fog 71 21.7 71 21.7 100 100 Calm 30.21 1023 2 3 0.00 0.00
6:33 am 06:33 Clear with Mist and Fog 70 21.1 70 21.1 100 100 Calm 30.21 1023 5 8 0.00 0.00
6:53 am 06:53 Partly Cloudy with Mist and Fog 71 21.7 71 21.7 100 100 Calm 30.23 1024 5 8 0.00 0.00
7:15 am 07:15 Sunny with Mist and Fog 71 21.7 71 21.7 100 100 Calm 30.21 1023 2 2 0.00 0.00
7:18 am 07:18 Partly Cloudy with Mist and Fog 71 21.7 71 21.7 100 100 Calm 30.21 1023 5 8 0.00 0.00
7:53 am 07:53 Partly Cloudy 73 22.8 73 22.8 100 100 Calm 30.24 1024 10 16 0.00 0.00
8:53 am 08:53 Sunny 77 25 74 23.3 90 90 NE 3 6 30.26 1025 10 16 0.00 0.00
9:53 am 09:53 Sunny 81 27.2 76 24.4 85 85 Calm 30.26 1025 10 16 0.00 0.00
10:53 am 10:53 Sunny 86 30 76 24.4 72 72 Calm 30.25 1025 10 16 0.00 0.00
11:53 am 11:53 Mostly Sunny 89 31.7 75 23.9 63 63 VRB 3 6 30.25 1024 10 16 0.00 0.00
12:53 pm 12:53 Sunny 89 31.7 74 23.3 61 61 VRB 3 6 30.23 1024 10 16 0.00 0.00
1:53 pm 13:53 Partly Cloudy 91 32.8 75 23.9 59 59 ENE 7 11 30.22 1023 10 16 0.00 0.00
2:53 pm 14:53 Mostly Cloudy 92 33.3 75 23.9 58 58 NE 6 9 30.19 1023 10 16 0.00 0.00
3:53 pm 15:53 Mostly Cloudy 92 33.3 74 23.3 56 56 S 6 9 30.17 1022 10 16 0.00 0.00
4:53 pm 16:53 Mostly Cloudy 91 32.8 73 22.8 56 56 S 12 19 30.16 1021 10 16 0.00 0.00
5:53 pm 17:53 Mostly Sunny 89 31.7 72 22.2 57 57 S 3 6 30.16 1021 10 16 0.00 0.03
6:53 pm 18:53 Sunny 87 30.6 76 24.4 70 70 SSW 3 6 30.15 1021 10 16 0.00 0.00
7:53 pm 19:53 Sunny 84 28.9 74 23.3 72 72 S 3 6 30.14 1021 10 16 0.00 0.00
8:53 pm 20:53 Clear 79 26.1 75 23.9 88 88 Calm 30.16 1021 10 16 0.00 0.00
9:53 pm 21:53 Clear 76 24.4 74 23.3 94 94 Calm 30.17 1022 10 16 0.00 0.00
10:53 pm 22:53 Clear 74 23.3 73 22.8 97 97 Calm 30.18 1022 10 16 0.00 0.00
11:53 pm 23:53 Clear 75 23.9 74 23.3 96 96 Calm 30.18 1022 10 16 0.00 0.00

Powered by AerisWeather